Regional Weather Roundup
Issued by NWS

Home | Current Version | Previous Version | Graphics & Text | Print | Product List | Glossary On
Versions: 1 2 3 4 5 6 7 8 9 10 11 12 13 14 15 16 17 18 19 20 21 22 23 24 25 26 27 28 29 30 31 32 33 34 35 36 37 38 39 40 41 42 43 44 45 46 47 48 49 50
000
ASUS43 KOAX 011310
RWRNE

WEATHER ROUNDUP FOR NEBRASKA
NATIONAL WEATHER SERVICE OMAHA NE
800 AM CDT WED OCT 01 2014

NOTES: SATELLITE DATA IS BEING USED TO AUGMENT CLOUD COVER ABOVE
       12000 FEET.
       "FAIR" INDICATES FEW OR NO CLOUDS BELOW 12,000 FEET WITH NO
       SIGNIFICANT WEATHER AND/OR OBSTRUCTIONS TO VISIBILITY.

  * THESE STATIONS DO NOT REPORT WEATHER SUCH AS RAIN...SNOW OR FOG.

NEZ001>004-019>022-054>056-011400-
NEBRASKA PANHANDLE

CITY           SKY/WX    TMP DP  RH WIND       PRES   REMARKS
SCOTTSBLUFF    CLEAR     44  43  96 NW6       29.87R
ALLIANCE       CLEAR     40  39  97 W10       29.85R WCI  33
CHADRON        CLEAR     47  43  86 W5        29.83R
KIMBALL        MOCLDY    45  39  82 NW7       29.87R
SIDNEY         PTCLDY    48  40  73 NW15      29.86S
$$

NEZ057>060-069>072-079>082-011400-
SOUTHWEST NEBRASKA

CITY           SKY/WX    TMP DP  RH WIND       PRES   REMARKS
NORTH PLATTE   CLEAR     45  43  93 CALM      29.80R
IMPERIAL       CLEAR     50  43  77 NW7       29.83R
LEXINGTON      FOG       49  49  98 CALM      29.76S VSB<1/4
MCCOOK         FOG       51  50  96 NW7       29.80R VSB 1/4
OGALLALA       CLEAR     44  43  97 W5        29.83R
$$

NEZ005>010-023>029-035>040-094-011400-
NORTH CENTRAL NEBRASKA

CITY           SKY/WX    TMP DP  RH WIND       PRES   REMARKS
VALENTINE      PTCLDY    47  45  93 NW6       29.79R
AINSWORTH      MOCLDY    51  47  84 W7        29.78R
BROKEN BOW     CLOUDY    55  52  89 NW5       29.76R
O`NEILL        CLOUDY    60  54  81 W5        29.74R
ORD            MOCLDY    55  53  93 CALM      29.73R
THEDFORD       PTCLDY    50  46  87 W3        29.80S
$$

NEZ041-046>049-061>064-073>077-083>087-011400-
SOUTH CENTRAL NEBRASKA

CITY           SKY/WX    TMP DP  RH WIND       PRES   REMARKS
GRAND ISLAND   PTCLDY    57  56  96 E5        29.75R FOG
AURORA           N/A     60  60 100 E3        29.76R FOG
HASTINGS       CLEAR     59  57  93 E3        29.75S FOG
HEBRON         FOG       63  61  94 W3        29.74R VSB 1/4
HOLDREGE       FOG       54  53  96 CALM      29.76S VSB<1/4
KEARNEY *      CLOUDY    55  54  94 CALM      29.77R VSB<1/4
YORK           CLOUDY    59  59 100 N3        29.77R FOG
$$

NEZ011>018-030>034-042>045-011400-
NORTHEAST NEBRASKA

CITY           SKY/WX    TMP DP  RH WIND       PRES   REMARKS
NORFOLK        CLEAR     59  58  96 SE9       29.74F
ALBION         FOG       59  57  94 SE5       29.74S VSB 1/4
BLAIR          CLOUDY    61  59  94 CALM      29.74S
COLUMBUS *     MOCLDY    57  55  94 CALM      29.77R
FREMONT        CLOUDY    62  60  94 CALM      29.75R
TEKAMAH        CLOUDY    61  59  93 CALM      29.75R
WAYNE          MOCLDY    60  58  94 W3        29.77R
$$

NEZ050>053-065>068-078-088>093-011400-
SOUTHEAST NEBRASKA

CITY           SKY/WX    TMP DP  RH WIND       PRES   REMARKS
LINCOLN        CLOUDY    63  60  90 SE6       29.74R
OMAHA EPPLEY   LGT RAIN  62  59  90 SE3       29.73S
BEATRICE       CLOUDY    65  64  94 CALM      29.73R
FALLS CITY     CLOUDY    65  63  93 SE6       29.73R
NEBRASKA CITY  RAIN      62  62 100 E5        29.74R
PLATTSMOUTH      N/A     62  59  91 CALM      29.74S
$$

NEZ044-045-051>053-067-011400-
OMAHA AREA

CITY           SKY/WX    TMP DP  RH WIND       PRES   REMARKS
OMAHA EPPLEY   LGT RAIN  62  59  90 SE3       29.73S
BLAIR          CLOUDY    61  59  94 CALM      29.74S
FREMONT        CLOUDY    62  60  94 CALM      29.75R
MILLARD        LGT RAIN  62  60  94 CALM      29.73S
OFFUTT AFB     CLOUDY    62  62 100 NW3       29.74R
PLATTSMOUTH      N/A     62  59  91 CALM      29.74S
WAHOO          PTSUNNY   60  58  92 N3        29.74R
$$


USA.gov is the U.S. government's official web portal to all federal, state and local government web resources and services.